TimeCST,TemperatureF,Dew PointF,Humidity,Sea Level PressureIn,VisibilityMPH,Wind Direction,Wind SpeedMPH,Gust SpeedMPH,PrecipitationIn,Events,Conditions,WindDirDegrees,DateUTC
12:05 AM,-9.4,-16.6,71,30.04,10.0,Calm,Calm,-,N/A,,Mostly Cloudy,0,2013-12-26 06:05:00
12:25 AM,-11.2,-16.6,77,30.04,10.0,Calm,Calm,-,N/A,,Mostly Cloudy,0,2013-12-26 06:25:00
12:46 AM,-11.2,-16.6,77,30.04,10.0,Calm,Calm,-,N/A,,Mostly Cloudy,0,2013-12-26 06:46:00
1:06 AM,-14.8,-18.4,84,30.04,10.0,Calm,Calm,-,N/A,,Scattered Clouds,0,2013-12-26 07:06:00
1:25 AM,-14.8,-20.2,77,30.05,10.0,Calm,Calm,-,N/A,,Mostly Cloudy,0,2013-12-26 07:25:00
1:46 AM,-14.8,-20.2,77,30.05,10.0,Calm,Calm,-,N/A,,Mostly Cloudy,0,2013-12-26 07:46:00
2:05 AM,-16.6,-20.2,84,30.06,10.0,Calm,Calm,-,N/A,,Mostly Cloudy,0,2013-12-26 08:05:00
2:25 AM,-16.6,-20.2,84,30.06,10.0,Calm,Calm,-,N/A,,Scattered Clouds,0,2013-12-26 08:25:00
2:45 AM,-18.4,-23.8,76,30.06,10.0,Calm,Calm,-,N/A,,Clear,0,2013-12-26 08:45:00
3:05 AM,-18.4,-23.8,76,30.06,10.0,Calm,Calm,-,N/A,,Clear,0,2013-12-26 09:05:00
3:25 AM,-18.4,-23.8,76,30.05,10.0,Calm,Calm,-,N/A,,Clear,0,2013-12-26 09:25:00
3:45 AM,-20.2,-25.6,76,30.05,10.0,Calm,Calm,-,N/A,,Clear,0,2013-12-26 09:45:00
4:05 AM,-20.2,-25.6,76,30.06,10.0,Calm,Calm,-,N/A,,Clear,0,2013-12-26 10:05:00
4:25 AM,-20.2,-25.6,76,30.06,10.0,Calm,Calm,-,N/A,,Clear,0,2013-12-26 10:25:00
4:45 AM,-20.2,-25.6,76,30.06,10.0,Calm,Calm,-,N/A,,Clear,0,2013-12-26 10:45:00
5:06 AM,-22.0,-27.4,76,30.07,10.0,Calm,Calm,-,N/A,,Clear,0,2013-12-26 11:06:00
5:25 AM,-20.2,-25.6,76,30.06,10.0,Calm,Calm,-,N/A,,Clear,0,2013-12-26 11:25:00
5:45 AM,-20.2,-25.6,76,30.08,10.0,Calm,Calm,-,N/A,,Clear,0,2013-12-26 11:45:00
6:05 AM,-20.2,-25.6,76,30.08,10.0,Calm,Calm,-,N/A,,Clear,0,2013-12-26 12:05:00
6:25 AM,-20.2,-25.6,76,-9999,10.0,Calm,Calm,-,N/A,,Clear,0,2013-12-26 12:25:00
6:45 AM,-22.0,-27.4,76,30.07,10.0,Calm,Calm,-,N/A,,Clear,0,2013-12-26 12:45:00
7:05 AM,-23.8,-27.4,83,30.07,10.0,Calm,Calm,-,N/A,,Clear,0,2013-12-26 13:05:00
7:25 AM,-23.8,-27.4,83,30.09,10.0,Calm,Calm,-,N/A,,Scattered Clouds,0,2013-12-26 13:25:00
7:45 AM,-22.0,-27.4,76,30.09,10.0,Calm,Calm,-,N/A,,Scattered Clouds,0,2013-12-26 13:45:00
8:05 AM,-22.0,-25.6,83,30.09,10.0,Calm,Calm,-,N/A,,Scattered Clouds,0,2013-12-26 14:05:00
8:26 AM,-20.2,-25.6,76,30.10,10.0,Calm,Calm,-,N/A,,Scattered Clouds,0,2013-12-26 14:26:00
8:45 AM,-20.2,-25.6,76,30.10,10.0,Calm,Calm,-,N/A,,Clear,0,2013-12-26 14:45:00
9:05 AM,-20.2,-25.6,76,30.10,10.0,Calm,Calm,-,N/A,,Clear,0,2013-12-26 15:05:00
9:25 AM,-18.4,-23.8,76,30.10,10.0,Calm,Calm,-,N/A,,Clear,0,2013-12-26 15:25:00
9:45 AM,-14.8,-18.4,84,30.10,10.0,Calm,Calm,-,N/A,,Clear,0,2013-12-26 15:45:00
10:05 AM,-7.6,-11.2,84,30.11,10.0,Calm,Calm,-,N/A,,Clear,0,2013-12-26 16:05:00
10:25 AM,-2.2,-7.6,78,30.11,10.0,Calm,Calm,-,N/A,,Clear,0,2013-12-26 16:25:00
10:46 AM,1.4,-4.0,78,30.12,10.0,Calm,Calm,-,N/A,,Clear,0,2013-12-26 16:46:00
11:05 AM,3.2,-2.2,78,30.11,10.0,Calm,Calm,-,N/A,,Clear,0,2013-12-26 17:05:00
11:25 AM,5.0,-2.2,72,30.10,10.0,Calm,Calm,-,N/A,,Clear,0,2013-12-26 17:25:00
11:45 AM,10.4,3.2,73,30.10,10.0,South,4.6,-,N/A,,Clear,170,2013-12-26 17:45:00
12:05 PM,8.6,-2.2,62,30.09,10.0,Calm,Calm,-,N/A,,Clear,0,2013-12-26 18:05:00
12:25 PM,10.4,-0.4,62,30.09,10.0,Calm,Calm,-,N/A,,Scattered Clouds,0,2013-12-26 18:25:00
12:46 PM,8.6,-2.2,62,30.09,10.0,South,3.5,-,N/A,,Scattered Clouds,190,2013-12-26 18:46:00
1:05 PM,8.6,-2.2,62,30.09,10.0,SSW,3.5,-,N/A,,Scattered Clouds,210,2013-12-26 19:05:00
1:25 PM,8.6,-0.4,67,30.09,10.0,Calm,Calm,-,N/A,,Mostly Cloudy,0,2013-12-26 19:25:00
1:45 PM,10.4,-2.2,57,30.08,10.0,South,4.6,-,N/A,,Scattered Clouds,190,2013-12-26 19:45:00
2:05 PM,10.4,-0.4,62,30.09,10.0,Calm,Calm,-,N/A,,Clear,0,2013-12-26 20:05:00
2:25 PM,8.6,-2.2,62,30.09,10.0,Calm,Calm,-,N/A,,Clear,0,2013-12-26 20:25:00
2:45 PM,8.6,-2.2,62,30.09,10.0,Calm,Calm,-,N/A,,Clear,0,2013-12-26 20:45:00
3:05 PM,8.6,-2.2,62,30.09,10.0,SSW,3.5,-,N/A,,Clear,210,2013-12-26 21:05:00
3:26 PM,6.8,-2.2,67,30.10,10.0,Calm,Calm,-,N/A,,Clear,0,2013-12-26 21:26:00
3:45 PM,3.2,-7.6,61,30.10,10.0,Calm,Calm,-,N/A,,Clear,0,2013-12-26 21:45:00
4:05 PM,-2.2,-11.2,66,30.11,10.0,Calm,Calm,-,N/A,,Clear,0,2013-12-26 22:05:00
4:25 PM,-5.8,-14.8,65,30.11,10.0,Calm,Calm,-,N/A,,Clear,0,2013-12-26 22:25:00
4:45 PM,-7.6,-16.6,65,30.12,10.0,Calm,Calm,-,N/A,,Clear,0,2013-12-26 22:45:00
5:05 PM,-9.4,-16.6,71,30.12,10.0,Calm,Calm,-,N/A,,Clear,0,2013-12-26 23:05:00
5:26 PM,-11.2,-18.4,70,30.12,10.0,Calm,Calm,-,N/A,,Clear,0,2013-12-26 23:26:00
5:46 PM,-11.2,-18.4,70,30.12,10.0,Calm,Calm,-,N/A,,Clear,0,2013-12-26 23:46:00
6:05 PM,-11.2,-18.4,70,30.12,10.0,Calm,Calm,-,N/A,,Clear,0,2013-12-27 00:05:00
6:25 PM,-13.0,-20.2,70,30.13,10.0,Calm,Calm,-,N/A,,Clear,0,2013-12-27 00:25:00
6:45 PM,-14.8,-20.2,77,30.13,10.0,Calm,Calm,-,N/A,,Clear,0,2013-12-27 00:45:00
7:06 PM,-14.8,-20.2,77,30.13,10.0,Calm,Calm,-,N/A,,Clear,0,2013-12-27 01:06:00
7:25 PM,-14.8,-22.0,70,30.14,10.0,Calm,Calm,-,N/A,,Clear,0,2013-12-27 01:25:00
7:46 PM,-16.6,-22.0,76,30.13,10.0,Calm,Calm,-,N/A,,Clear,0,2013-12-27 01:46:00
8:05 PM,-16.6,-23.8,70,30.12,10.0,Calm,Calm,-,N/A,,Clear,0,2013-12-27 02:05:00
8:25 PM,-16.6,-23.8,70,30.11,10.0,Calm,Calm,-,N/A,,Clear,0,2013-12-27 02:25:00
8:45 PM,-16.6,-23.8,70,30.11,10.0,Calm,Calm,-,N/A,,Clear,0,2013-12-27 02:45:00
9:05 PM,-16.6,-23.8,70,30.12,10.0,Calm,Calm,-,N/A,,Clear,0,2013-12-27 03:05:00
9:25 PM,-16.6,-23.8,70,30.13,10.0,Calm,Calm,-,N/A,,Clear,0,2013-12-27 03:25:00
9:45 PM,-16.6,-23.8,70,30.13,10.0,Calm,Calm,-,N/A,,Clear,0,2013-12-27 03:45:00
10:05 PM,-16.6,-22.0,76,30.11,10.0,Calm,Calm,-,N/A,,Clear,0,2013-12-27 04:05:00
10:26 PM,-16.6,-23.8,70,30.10,10.0,Calm,Calm,-,N/A,,Scattered Clouds,0,2013-12-27 04:26:00
10:45 PM,-16.6,-22.0,76,30.10,10.0,Calm,Calm,-,N/A,,Mostly Cloudy,0,2013-12-27 04:45:00
11:05 PM,-13.0,-18.4,77,30.11,10.0,Calm,Calm,-,N/A,,Overcast,0,2013-12-27 05:05:00
11:26 PM,-9.4,-14.8,77,30.10,10.0,Calm,Calm,-,N/A,,Overcast,0,2013-12-27 05:26:00
11:45 PM,-7.6,-11.2,84,30.08,10.0,Calm,Calm,-,N/A,,Overcast,0,2013-12-27 05:45:00